QPF
0.01 0.00 0.00 0.00 0.00 0.00 0.00 0.00 0.00 0.01 0.00 0.00 0.00 0.00 0.00 0.00 0.00 0.00 0.00 0.00 0.03 0.03 0.07 0.04 0.02 0.00 0.02 0.02 0.04 0.00 0.00 0.00 0.00 0.00 0.00 0.01 0.00 0.00 0.00 0.00 0.00 0.00 0.00
0.05 0.01 0.01 0.02 0.01 0.01 0.00 0.00 0.00 0.00 0.00 0.00 0.00 0.00 0.00 0.00 0.00 0.00 0.00 0.00 0.01 0.01 0.02 0.01 0.05 0.08 0.01 0.01 0.01 0.02 0.00 0.00 0.00 0.00 0.00 0.01 0.01 0.00 0.00 0.00 0.01 0.00 0.01
0.02 0.01 0.00 0.00 0.01 0.01 0.04 0.01 0.00 0.00 0.00 0.00 0.00 0.00 0.00 0.00 0.00 0.00 0.00 0.00 0.00 0.00 0.00 0.01 0.04 0.07 0.08 0.08 0.02 0.02 0.04 0.02 0.00 0.00 0.00 0.00 0.01 0.00 0.00 0.00 0.01 0.01 0.00
0.03 0.00 0.01 0.00 0.00 0.04 0.02 0.00 0.00 0.00 0.00 0.00 0.00 0.00 0.00 0.00 0.00 0.00 0.00 0.00 0.00 0.00 0.00 0.00 0.01 0.01 0.01 0.03 0.16 0.09 0.09 0.15 0.05 0.03 0.00 0.00 0.00 0.00 0.00 0.01 0.02 0.03 0.01
0.04 0.00 0.00 0.00 0.00 0.00 0.00 0.00 0.00 0.00 0.00 0.00 0.00 0.00 0.00 0.00 0.00 0.00 0.00 0.00 0.00 0.00 0.00 0.00 0.01 0.01 0.01 0.00 0.06 0.15 0.14 0.15 0.03 0.01 0.04 0.04 0.01 0.00 0.00 0.00 0.00 0.01 0.01
0.00 0.00 0.00 0.00 0.00 0.00 0.00 0.00 0.00 0.00 0.00 0.00 0.00 0.00 0.00 0.00 0.00 0.00 0.00 0.00 0.00 0.00 0.00 0.00 0.00 0.00 0.02 0.03 0.02 0.05 0.10 0.11 0.09 0.09 0.12 0.05 0.04 0.01 0.01 0.00 0.01 0.02 0.02
0.00 0.00 0.00 0.00 0.00 0.00 0.00 0.00 0.00 0.00 0.00 0.00 0.00 0.00 0.00 0.00 0.00 0.00 0.00 0.00 0.00 0.00 0.00 0.00 0.00 0.00 0.00 0.02 0.03 0.02 0.02 0.03 0.05 0.11 0.14 0.12 0.10 0.08 0.06 0.01 0.03 0.04 0.02
0.00 0.00 0.00 0.00 0.00 0.00 0.00 0.00 0.00 0.00 0.00 0.00 0.00 0.00 0.00 0.00 0.00 0.00 0.00 0.00 0.00 0.00 0.00 0.00 0.00 0.00 0.00 0.00 0.01 0.02 0.02 0.00 0.00 0.02 0.03 0.06 0.12 0.18 0.15 0.18 0.14 0.08 0.05
0.00 0.00 0.00 0.00 0.00 0.00 0.00 0.00 0.00 0.00 0.00 0.00 0.00 0.00 0.00 0.00 0.00 0.00 0.00 0.00 0.00 0.00 0.00 0.00 0.00 0.00 0.00 0.00 0.00 0.00 0.00 0.00 0.00 0.00 0.00 0.02 0.03 0.06 0.05 0.06 0.06 0.07 0.06
0.00 0.00 0.00 0.00 0.00 0.00 0.00 0.00 0.00 0.00 0.00 0.00 0.00 0.00 0.00 0.00 0.00 0.00 0.00 0.00 0.00 0.00 0.00 0.00 0.00 0.00 0.00 0.00 0.00 0.00 0.00 0.00 0.00 0.00 0.00 0.00 0.00 0.00 0.00 0.00 0.00 0.00 0.00
0.00 0.00 0.00 0.00 0.00 0.00 0.00 0.00 0.00 0.00 0.00 0.00 0.00 0.00 0.00 0.00 0.00 0.00 0.00 0.00 0.00 0.00 0.00 0.00 0.00 0.00 0.00 0.00 0.00 0.00 0.00 0.00 0.00 0.00 0.00 0.00 0.00 0.00 0.00 0.00 0.00 0.00 0.00
0.00 0.00 0.00 0.00 0.00 0.00 0.00 0.00 0.00 0.00 0.00 0.00 0.00 0.00 0.00 0.00 0.00 0.00 0.00 0.00 0.00 0.00 0.00 0.00 0.00 0.00 0.00 0.00 0.00 0.00 0.00 0.00 0.00 0.00 0.00 0.00 0.00 0.00 0.00 0.00 0.00 0.00 0.00
0.00 0.00 0.00 0.00 0.00 0.00 0.00 0.00 0.00 0.00 0.00 0.00 0.00 0.00 0.00 0.00 0.00 0.00 0.00 0.00 0.00 0.00 0.00 0.00 0.00 0.00 0.00 0.00 0.00 0.00 0.00 0.00 0.00 0.00 0.00 0.00 0.00 0.00 0.00 0.00 0.00 0.00 0.00
0.00 0.00 0.00 0.00 0.00 0.00 0.00 0.00 0.00 0.00 0.00 0.00 0.00 0.00 0.00 0.00 0.00 0.00 0.00 0.00 0.00 0.00 0.00 0.00 0.00 0.00 0.00 0.00 0.00 0.00 0.00 0.00 0.00 0.00 0.00 0.00 0.00 0.00 0.00 0.00 0.00 0.00 0.00
0.00 0.00 0.00 0.00 0.00 0.00 0.00 0.00 0.00 0.00 0.00 0.00 0.00 0.00 0.00 0.00 0.00 0.00 0.00 0.00 0.00 0.00 0.00 0.00 0.00 0.00 0.00 0.00 0.00 0.00 0.00 0.00 0.00 0.00 0.00 0.00 0.00 0.00 0.00 0.00 0.00 0.00 0.00
0.00 0.00 0.00 0.00 0.00 0.00 0.00 0.00 0.00 0.00 0.00 0.00 0.00 0.00 0.00 0.00 0.00 0.00 0.00 0.00 0.00 0.00 0.00 0.00 0.00 0.00 0.00 0.00 0.00 0.00 0.00 0.00 0.00 0.00 0.00 0.00 0.00 0.00 0.00 0.00 0.00 0.00 0.00
0.00 0.00 0.00 0.00 0.00 0.00 0.00 0.00 0.00 0.00 0.00 0.00 0.00 0.00 0.00 0.00 0.00 0.00 0.00 0.00 0.00 0.00 0.00 0.00 0.00 0.00 0.00 0.00 0.00 0.00 0.00 0.00 0.00 0.00 0.00 0.00 0.00 0.00 0.00 0.00 0.00 0.00 0.00
0.00 0.00 0.00 0.00 0.00 0.00 0.00 0.00 0.00 0.00 0.00 0.00 0.00 0.00 0.00 0.00 0.00 0.00 0.00 0.00 0.00 0.00 0.00 0.00 0.00 0.00 0.00 0.00 0.00 0.00 0.00 0.00 0.00 0.00 0.00 0.00 0.00 0.00 0.00 0.00 0.00 0.00 0.00
0.00 0.00 0.00 0.00 0.00 0.00 0.00 0.00 0.00 0.00 0.00 0.00 0.00 0.00 0.00 0.00 0.00 0.00 0.00 0.00 0.00 0.00 0.00 0.00 0.00 0.00 0.00 0.00 0.00 0.00 0.00 0.00 0.00 0.00 0.00 0.00 0.00 0.00 0.00 0.00 0.00 0.00 0.00
0.00 0.00 0.00 0.00 0.00 0.00 0.00 0.00 0.00 0.00 0.00 0.00 0.00 0.00 0.00 0.00 0.00 0.00 0.00 0.00 0.00 0.00 0.00 0.00 0.00 0.00 0.00 0.00 0.00 0.00 0.00 0.00 0.00 0.00 0.00 0.00 0.00 0.00 0.00 0.00 0.00 0.00 0.00
0.00 0.00 0.00 0.00 0.00 0.00 0.00 0.00 0.00 0.00 0.00 0.00 0.00 0.00 0.01 0.03 0.01 0.00 0.00 0.00 0.00 0.00 0.00 0.00 0.00 0.00 0.00 0.00 0.00 0.00 0.00 0.00 0.00 0.00 0.00 0.00 0.00 0.00 0.00 0.00 0.00 0.00 0.00
0.00 0.00 0.00 0.00 0.00 0.00 0.00 0.00 0.00 0.00 0.00 0.00 0.00 0.01 0.04 0.08 0.03 0.00 0.00 0.00 0.00 0.00 0.00 0.00 0.00 0.00 0.00 0.00 0.00 0.00 0.00 0.00 0.00 0.00 0.00 0.00 0.00 0.00 0.00 0.00 0.00 0.00 0.00
0.00 0.00 0.00 0.00 0.00 0.00 0.00 0.00 0.00 0.00 0.00 0.00 0.03 0.06 0.02 0.12 0.02 0.00 0.00 0.00 0.00 0.00 0.00 0.01 0.00 0.00 0.00 0.00 0.00 0.00 0.00 0.00 0.00 0.00 0.00 0.00 0.00 0.00 0.00 0.00 0.00 0.00 0.00
0.00 0.00 0.00 0.00 0.00 0.00 0.00 0.00 0.00 0.00 0.00 0.03 0.01 0.03 0.02 0.02 0.00 0.00 0.00 0.00 0.00 0.00 0.01 0.02 0.00 0.00 0.00 0.00 0.00 0.00 0.00 0.00 0.00 0.00 0.00 0.00 0.00 0.00 0.00 0.00 0.00 0.00 0.00
0.00 0.00 0.00 0.00 0.00 0.00 0.00 0.00 0.00 0.00 0.00 0.01 0.01 0.02 0.01 0.01 0.00 0.00 0.00 0.00 0.00 0.00 0.01 0.00 0.00 0.00 0.00 0.00 0.00 0.00 0.00 0.00 0.00 0.00 0.00 0.00 0.00 0.00 0.00 0.00 0.00 0.00 0.00
0.00 0.00 0.00 0.00 0.00 0.00 0.00 0.00 0.00 0.00 0.00 0.00 0.00 0.00 0.01 0.00 0.00 0.00 0.00 0.00 0.00 0.00 0.00 0.00 0.00 0.00 0.00 0.00 0.00 0.00 0.00 0.00 0.00 0.00 0.00 0.00 0.00 0.00 0.00 0.00 0.00 0.00 0.00
MSLP
1019.06 1019.18 1019.12 1019.04 1018.97 1018.84 1018.78 1018.80 1018.89 1018.94 1019.08 1018.99 1019.02 1019.05 1019.16 1019.29 1019.34 1019.63 1019.82 1019.80 1019.80 1019.84 1019.86 1020.02 1020.27 1020.73 1021.02 1021.29 1021.45 1021.65 1021.82 1022.02 1022.19 1022.35 1022.46 1022.61 1022.80 1022.88 1022.98 1023.07 1023.15 1023.24 1023.32
1019.07 1019.12 1019.16 1019.09 1019.00 1018.87 1018.90 1018.84 1018.94 1018.96 1019.02 1019.19 1019.04 1019.11 1019.14 1019.18 1019.47 1019.59 1019.81 1019.80 1019.72 1019.78 1019.84 1019.94 1020.27 1020.41 1020.60 1020.93 1021.33 1021.59 1021.73 1021.90 1022.05 1022.23 1022.40 1022.51 1022.66 1022.82 1022.94 1023.02 1023.13 1023.19 1023.27
1018.93 1018.97 1019.05 1019.06 1018.95 1018.93 1018.91 1019.03 1019.01 1019.07 1019.06 1019.22 1019.48 1019.40 1019.16 1019.18 1019.29 1019.41 1019.61 1019.76 1019.78 1019.74 1019.80 1019.91 1020.17 1020.40 1020.56 1020.83 1021.10 1021.38 1021.37 1021.57 1021.76 1021.92 1022.18 1022.36 1022.54 1022.64 1022.77 1022.87 1022.93 1023.03 1023.09
1018.66 1018.80 1018.87 1018.93 1018.86 1018.98 1018.98 1019.14 1019.34 1019.45 1019.52 1019.56 1019.58 1019.61 1019.32 1019.18 1019.03 1019.18 1019.54 1019.82 1019.89 1019.90 1019.91 1019.88 1020.12 1020.36 1020.48 1020.67 1020.92 1021.05 1021.22 1021.46 1021.55 1021.72 1021.88 1022.06 1022.23 1022.41 1022.57 1022.71 1022.76 1022.81 1022.93
1018.38 1018.48 1018.67 1018.91 1018.85 1018.99 1019.11 1019.25 1019.55 1019.60 1019.77 1019.86 1019.77 1019.66 1019.61 1019.40 1019.10 1019.24 1019.47 1019.63 1019.87 1019.99 1020.10 1020.11 1020.15 1020.26 1020.52 1020.60 1020.80 1021.04 1021.06 1021.44 1021.60 1021.50 1021.60 1021.78 1022.05 1022.22 1022.30 1022.41 1022.57 1022.67 1022.74
1017.78 1018.11 1018.49 1018.71 1018.79 1019.00 1019.31 1019.43 1019.62 1019.77 1019.94 1020.11 1019.98 1020.03 1020.05 1019.74 1019.72 1019.67 1019.64 1019.74 1019.95 1020.02 1020.10 1020.30 1020.51 1020.59 1020.61 1020.67 1020.74 1020.85 1021.09 1021.18 1021.20 1021.33 1021.49 1021.60 1021.71 1021.85 1021.90 1022.07 1022.23 1022.36 1022.48
1017.44 1017.82 1018.28 1018.50 1018.59 1018.92 1019.19 1019.45 1019.78 1019.98 1020.12 1020.30 1020.32 1020.46 1020.42 1020.25 1020.20 1020.15 1020.11 1020.04 1019.90 1020.00 1020.31 1020.59 1020.76 1020.89 1020.89 1020.82 1020.91 1020.98 1020.99 1021.09 1021.09 1021.04 1021.11 1021.40 1021.48 1021.59 1021.65 1021.74 1021.91 1021.89 1022.01
1017.16 1017.49 1017.94 1018.27 1018.44 1018.82 1019.13 1019.48 1019.76 1020.11 1020.31 1020.45 1020.70 1020.95 1020.96 1020.85 1020.69 1020.77 1020.63 1020.42 1020.43 1020.43 1020.44 1020.68 1020.88 1021.07 1021.19 1021.21 1021.14 1021.14 1021.22 1021.18 1021.14 1021.08 1021.17 1021.17 1021.31 1021.47 1021.46 1021.71 1021.79 1021.86 1021.74
1016.70 1017.03 1017.49 1017.91 1018.19 1018.58 1018.94 1019.41 1019.65 1019.94 1020.23 1020.54 1020.53 1020.66 1021.25 1021.24 1021.29 1021.11 1021.07 1021.02 1021.01 1020.99 1020.98 1020.98 1021.09 1021.24 1021.35 1021.39 1021.48 1021.42 1021.48 1021.45 1021.43 1021.37 1021.41 1021.51 1021.54 1021.69 1021.69 1021.79 1021.86 1021.90 1021.81
1016.31 1016.69 1017.16 1017.61 1017.92 1018.23 1018.76 1019.05 1019.33 1019.69 1019.96 1020.36 1020.72 1020.81 1020.91 1021.04 1021.32 1021.71 1021.49 1021.44 1021.36 1021.31 1021.30 1021.29 1021.29 1021.32 1021.41 1021.58 1021.66 1021.69 1021.67 1021.68 1021.65 1021.64 1021.69 1021.77 1021.84 1021.88 1021.88 1021.99 1022.01 1021.96 1021.85
1015.97 1016.23 1016.72 1017.22 1017.72 1017.93 1018.37 1018.70 1019.06 1019.41 1019.79 1020.18 1020.52 1020.91 1021.15 1021.21 1021.20 1021.38 1021.61 1021.60 1021.54 1021.42 1021.31 1021.39 1021.39 1021.36 1021.47 1021.54 1021.66 1021.74 1021.73 1021.78 1021.77 1021.73 1021.78 1021.89 1021.96 1022.00 1022.04 1021.98 1022.01 1021.96 1021.88
1015.77 1015.89 1016.30 1016.68 1017.13 1017.48 1018.01 1018.35 1018.74 1019.20 1019.54 1019.96 1020.27 1020.50 1020.60 1020.85 1021.06 1021.16 1021.51 1021.64 1021.59 1021.46 1021.43 1021.38 1021.39 1021.39 1021.42 1021.53 1021.60 1021.70 1021.76 1021.78 1021.81 1021.89 1021.94 1021.98 1022.08 1022.09 1022.05 1022.04 1021.94 1021.85 1021.78
1015.49 1015.69 1016.05 1016.43 1016.90 1016.99 1017.49 1017.96 1018.59 1018.97 1019.34 1019.74 1020.06 1020.23 1020.47 1020.51 1020.73 1020.95 1021.13 1021.53 1021.64 1021.78 1021.57 1021.23 1021.16 1021.18 1021.23 1021.23 1021.36 1021.51 1021.61 1021.70 1021.77 1021.90 1021.98 1021.97 1022.00 1022.05 1022.03 1021.95 1021.83 1021.76 1021.70
1014.64 1015.04 1015.49 1015.66 1016.07 1016.50 1017.17 1017.79 1018.30 1018.71 1019.12 1019.50 1019.81 1019.99 1020.25 1020.41 1020.50 1020.70 1020.90 1021.24 1021.76 1021.80 1021.69 1021.21 1020.98 1020.81 1020.88 1020.93 1020.94 1021.20 1021.29 1021.44 1021.53 1021.72 1021.78 1021.82 1021.83 1021.77 1021.75 1021.75 1021.72 1021.66 1021.54
1014.04 1014.49 1014.96 1015.37 1015.62 1016.09 1016.68 1017.35 1018.00 1018.47 1018.83 1019.23 1019.52 1019.79 1020.05 1020.23 1020.38 1020.42 1020.55 1020.74 1021.00 1021.60 1021.52 1021.10 1021.01 1020.69 1020.59 1020.74 1020.78 1020.83 1021.00 1021.13 1021.28 1021.40 1021.52 1021.61 1021.59 1021.55 1021.48 1021.44 1021.36 1021.23 1021.16
1013.53 1013.96 1014.48 1014.96 1015.39 1015.84 1016.36 1016.97 1017.62 1018.12 1018.58 1018.95 1019.23 1019.59 1019.87 1020.01 1020.14 1020.27 1020.38 1020.57 1020.78 1021.01 1021.24 1021.05 1020.95 1020.84 1020.66 1020.63 1020.84 1020.88 1021.02 1021.11 1021.02 1021.09 1021.09 1021.12 1021.05 1020.96 1020.95 1020.94 1020.89 1020.85 1020.77
1012.86 1013.42 1013.94 1014.42 1014.93 1015.45 1016.09 1016.72 1017.27 1017.74 1018.19 1018.68 1019.04 1019.19 1019.40 1019.57 1019.75 1020.02 1020.17 1020.41 1020.54 1020.75 1021.00 1021.00 1020.98 1020.89 1020.82 1020.63 1020.65 1020.69 1020.59 1020.55 1020.46 1020.51 1020.51 1020.48 1020.44 1020.40 1020.42 1020.49 1020.48 1020.51 1020.50
1012.12 1012.67 1013.19 1013.76 1014.27 1014.81 1015.35 1015.98 1016.67 1017.23 1017.72 1018.10 1018.38 1018.74 1018.86 1019.23 1019.50 1019.73 1019.98 1020.23 1020.36 1020.54 1020.58 1020.65 1020.74 1020.74 1020.69 1020.43 1020.26 1020.28 1020.37 1020.39 1020.39 1020.25 1020.21 1020.18 1020.19 1020.10 1020.10 1020.20 1020.25 1020.20 1020.06
1011.21 1011.90 1012.41 1012.88 1013.37 1013.92 1014.52 1015.13 1015.73 1016.41 1016.84 1017.19 1017.56 1017.87 1018.11 1018.67 1018.97 1019.31 1019.51 1019.89 1019.97 1020.07 1020.24 1020.29 1020.29 1020.49 1020.53 1020.60 1020.50 1020.44 1020.32 1020.36 1020.42 1020.38 1020.27 1020.00 1019.96 1019.93 1019.94 1020.03 1020.03 1019.93 1019.82
1010.19 1010.81 1011.27 1011.77 1012.32 1012.92 1013.55 1014.16 1014.86 1015.50 1016.02 1016.38 1016.68 1016.94 1017.36 1017.75 1018.06 1018.49 1018.88 1019.20 1019.47 1019.68 1019.88 1020.18 1020.35 1020.45 1020.55 1020.51 1020.48 1020.35 1020.24 1020.27 1020.28 1020.05 1020.04 1019.91 1019.79 1019.78 1019.63 1019.54 1019.39 1019.38 1019.36
1008.70 1009.38 1010.28 1010.86 1011.41 1012.02 1012.44 1013.19 1013.90 1014.55 1015.10 1015.54 1015.83 1016.16 1016.61 1016.97 1017.38 1017.64 1018.16 1018.56 1018.97 1019.27 1019.52 1019.88 1020.15 1020.29 1020.31 1020.36 1020.20 1019.98 1020.02 1019.95 1019.91 1019.83 1019.64 1019.27 1019.45 1019.60 1019.33 1019.21 1019.06 1018.99 1018.90
1007.86 1008.67 1009.28 1009.94 1010.57 1010.88 1011.28 1012.00 1012.73 1013.56 1014.16 1014.57 1014.97 1015.30 1015.79 1016.34 1016.65 1016.95 1017.31 1017.63 1018.04 1018.56 1019.00 1019.29 1019.51 1019.47 1019.52 1019.62 1019.71 1019.81 1019.76 1019.90 1019.76 1019.57 1019.73 1019.31 1019.38 1019.15 1018.77 1018.64 1018.45 1018.42 1018.38
1006.84 1007.52 1008.28 1009.12 1009.59 1010.07 1010.61 1011.22 1011.86 1012.53 1013.12 1013.52 1013.91 1014.41 1014.90 1015.63 1015.88 1016.13 1016.56 1017.10 1017.45 1017.62 1017.66 1018.30 1018.83 1018.91 1018.92 1019.08 1019.29 1019.33 1019.39 1019.49 1019.46 1019.31 1019.67 1019.25 1019.12 1018.76 1018.22 1018.10 1018.01 1017.92 1017.73
1005.29 1006.16 1006.96 1007.67 1008.60 1009.21 1009.86 1010.49 1011.04 1011.63 1012.11 1012.57 1013.06 1013.54 1013.94 1014.36 1014.79 1015.27 1015.85 1016.45 1016.79 1017.09 1017.35 1017.65 1017.87 1017.82 1018.15 1018.44 1018.77 1019.06 1019.09 1019.30 1019.30 1019.07 1019.45 1019.18 1018.73 1018.31 1017.85 1017.69 1017.53 1017.29 1017.08
1004.28 1004.53 1005.49 1006.54 1007.20 1007.89 1008.50 1009.28 1010.28 1010.87 1011.39 1011.74 1012.23 1012.80 1013.17 1013.60 1013.93 1014.56 1015.32 1015.81 1016.20 1016.33 1016.51 1016.96 1017.24 1017.64 1018.06 1018.42 1018.66 1019.04 1019.02 1019.08 1018.82 1018.66 1019.05 1018.91 1018.40 1018.25 1017.84 1017.35 1017.10 1017.03 1016.85
1003.26 1004.11 1004.63 1005.15 1005.80 1006.45 1007.24 1008.00 1008.74 1009.36 1010.16 1010.71 1011.23 1011.68 1012.04 1012.75 1013.37 1014.01 1014.45 1015.10 1015.63 1016.00 1016.54 1016.90 1017.18 1017.41 1017.72 1017.77 1018.00 1018.23 1018.45 1018.43 1018.59 1018.73 1018.48 1018.64 1018.21 1018.31 1017.71 1017.32 1017.17 1016.72 1016.40
Thickness
5757 5755 5756 5757 5758 5759 5760 5758 5757 5755 5753 5751 5750 5749 5749 5747 5745 5741 5739 5739 5738 5737 5736 5734 5730 5726 5724 5720 5719 5718 5716 5713 5712 5712 5711 5710 5708 5708 5707 5705 5705 5705 5704
5757 5756 5756 5758 5758 5759 5758 5758 5757 5755 5753 5751 5751 5749 5748 5748 5744 5742 5739 5739 5738 5738 5736 5735 5731 5729 5726 5723 5719 5716 5714 5711 5710 5709 5709 5708 5708 5707 5707 5706 5705 5704 5704
5759 5758 5758 5759 5759 5758 5757 5755 5755 5754 5754 5752 5750 5749 5749 5748 5745 5744 5742 5740 5739 5738 5737 5735 5732 5730 5727 5724 5720 5717 5715 5710 5711 5712 5710 5708 5707 5707 5707 5707 5707 5706 5705
5761 5760 5760 5761 5760 5757 5756 5754 5753 5751 5750 5750 5748 5747 5748 5748 5748 5746 5742 5739 5737 5737 5736 5734 5732 5730 5728 5725 5721 5719 5717 5716 5714 5712 5710 5708 5706 5706 5706 5706 5707 5707 5706
5764 5763 5763 5761 5760 5757 5755 5754 5751 5750 5747 5746 5746 5745 5745 5746 5748 5745 5742 5740 5737 5735 5733 5732 5731 5729 5726 5725 5722 5719 5718 5714 5713 5713 5712 5708 5703 5704 5705 5706 5706 5706 5706
5769 5766 5764 5762 5759 5757 5754 5752 5751 5749 5746 5744 5744 5742 5739 5741 5740 5739 5739 5737 5736 5733 5731 5729 5727 5725 5724 5723 5721 5719 5717 5716 5716 5714 5711 5710 5707 5706 5707 5706 5706 5707 5706
5772 5769 5766 5762 5760 5757 5755 5753 5749 5746 5744 5742 5738 5736 5735 5735 5734 5733 5733 5732 5732 5732 5729 5726 5723 5722 5722 5721 5719 5717 5717 5716 5715 5715 5713 5711 5710 5710 5708 5706 5705 5708 5707
5775 5772 5767 5763 5760 5757 5755 5752 5749 5744 5742 5740 5733 5728 5723 5726 5728 5726 5727 5729 5728 5727 5726 5723 5721 5719 5717 5716 5715 5715 5713 5712 5712 5712 5712 5711 5710 5708 5709 5704 5703 5704 5706
5779 5775 5770 5765 5762 5759 5755 5752 5749 5745 5740 5738 5736 5731 5718 5714 5715 5720 5719 5720 5720 5720 5719 5719 5718 5716 5714 5712 5711 5710 5709 5709 5708 5708 5707 5707 5707 5705 5704 5703 5702 5701 5702
5780 5776 5771 5766 5764 5760 5756 5753 5751 5747 5743 5737 5733 5730 5727 5722 5712 5705 5712 5713 5714 5715 5714 5714 5713 5712 5711 5709 5708 5707 5705 5704 5703 5703 5702 5701 5700 5699 5699 5698 5697 5698 5699
5781 5777 5773 5769 5765 5762 5759 5756 5752 5748 5743 5738 5732 5727 5722 5718 5716 5709 5704 5708 5711 5712 5712 5711 5709 5708 5706 5706 5705 5703 5702 5700 5700 5699 5698 5697 5696 5695 5694 5694 5695 5695 5695
5782 5779 5775 5772 5768 5765 5761 5758 5754 5749 5744 5739 5735 5730 5726 5720 5715 5712 5706 5705 5707 5708 5708 5707 5706 5706 5704 5702 5700 5699 5698 5697 5696 5694 5693 5692 5690 5690 5690 5690 5690 5691 5692
5780 5779 5776 5773 5769 5768 5764 5761 5754 5749 5745 5741 5737 5732 5729 5725 5721 5716 5712 5704 5702 5701 5703 5706 5704 5703 5701 5700 5699 5696 5694 5692 5691 5690 5689 5688 5687 5686 5685 5685 5687 5687 5687
5785 5782 5779 5777 5774 5771 5765 5760 5755 5750 5746 5743 5738 5734 5730 5727 5724 5721 5716 5709 5699 5696 5697 5701 5701 5701 5699 5697 5696 5693 5691 5689 5687 5684 5683 5683 5682 5682 5681 5681 5681 5681 5682
5787 5784 5782 5779 5777 5772 5767 5761 5756 5751 5747 5743 5740 5735 5730 5726 5723 5721 5718 5714 5707 5695 5696 5701 5698 5700 5698 5695 5691 5688 5685 5685 5683 5681 5679 5677 5676 5676 5676 5676 5677 5678 5678
5788 5785 5784 5780 5777 5773 5769 5763 5757 5752 5748 5744 5740 5734 5730 5726 5722 5718 5715 5711 5706 5701 5695 5698 5698 5696 5694 5692 5687 5683 5679 5678 5678 5677 5677 5675 5674 5672 5671 5671 5671 5671 5671
5790 5786 5785 5782 5778 5774 5769 5763 5758 5753 5749 5744 5739 5736 5732 5727 5723 5719 5715 5710 5706 5701 5694 5694 5693 5692 5690 5688 5684 5681 5680 5678 5677 5675 5673 5672 5671 5670 5667 5665 5664 5663 5662
5792 5789 5787 5784 5781 5778 5773 5767 5761 5756 5750 5745 5742 5736 5734 5728 5722 5718 5714 5710 5706 5702 5698 5693 5692 5688 5685 5686 5685 5683 5679 5675 5672 5670 5667 5664 5662 5662 5661 5658 5655 5654 5654
5794 5791 5789 5788 5785 5782 5777 5772 5766 5759 5754 5750 5745 5741 5736 5729 5723 5718 5714 5709 5707 5704 5699 5696 5691 5686 5683 5678 5676 5674 5670 5667 5663 5659 5657 5657 5656 5653 5650 5647 5647 5646 5646
5797 5796 5795 5792 5790 5787 5782 5777 5770 5763 5758 5754 5750 5745 5740 5734 5728 5723 5717 5711 5706 5701 5696 5690 5685 5680 5675 5673 5670 5665 5661 5658 5656 5652 5647 5645 5644 5642 5641 5640 5640 5638 5636
5807 5805 5798 5795 5793 5789 5787 5781 5775 5768 5761 5755 5752 5748 5742 5736 5731 5727 5720 5712 5705 5699 5693 5686 5679 5674 5669 5664 5662 5662 5656 5652 5648 5643 5641 5640 5634 5630 5629 5629 5629 5627 5625
5810 5804 5801 5797 5794 5795 5792 5786 5780 5772 5764 5759 5754 5751 5744 5736 5731 5727 5721 5715 5708 5698 5689 5683 5677 5671 5667 5662 5657 5652 5646 5641 5636 5635 5629 5627 5621 5619 5618 5617 5616 5614 5613
5813 5809 5804 5798 5797 5795 5790 5784 5779 5775 5769 5764 5759 5752 5748 5738 5733 5729 5721 5711 5704 5698 5694 5682 5672 5665 5661 5655 5650 5646 5640 5634 5630 5628 5619 5618 5614 5613 5610 5607 5605 5603 5601
5821 5815 5810 5806 5799 5796 5789 5783 5779 5777 5773 5767 5760 5754 5749 5744 5738 5730 5721 5711 5703 5694 5686 5678 5673 5668 5660 5652 5644 5636 5631 5625 5620 5616 5608 5605 5605 5604 5602 5597 5595 5593 5592
5823 5823 5816 5808 5804 5800 5795 5787 5778 5776 5771 5767 5760 5753 5749 5743 5739 5728 5719 5709 5701 5694 5687 5678 5670 5662 5652 5643 5634 5626 5621 5615 5612 5607 5600 5598 5597 5592 5590 5587 5582 5579 5579
5826 5819 5815 5813 5809 5804 5797 5789 5783 5780 5771 5766 5760 5756 5751 5743 5733 5723 5718 5706 5695 5686 5677 5668 5662 5653 5645 5639 5632 5623 5618 5611 5604 5596 5596 5590 5587 5579 5580 5573 5568 5566 5566